THA575 VLVT-VTBS

Flight info

Callsign THA575
Flight time 0h 51m
Altitude 34000
Route CHU1B CMP W21 NOBER NORTA1C
Aircraft A320/M-SDE3FGHIRWY/LB1

Departure

Time 2026-04-25 08:57
Airport Wattay International Airport (VLVT)

Arrival

Time 2026-04-25 09:48
Airport Suvarnabhumi Airport (VTBS)
Time Latitude Longitude Altitude Speed Heading
2026-04-25 08:20 17.97630 102.56879 563 ft 0 kts 225°
2026-04-25 08:44 17.97632 102.56881 563 ft 2 kts 225°
2026-04-25 08:44 17.97649 102.56902 570 ft 4 kts 240°
2026-04-25 08:44 17.97659 102.56927 569 ft 4 kts 261°
2026-04-25 08:44 17.97659 102.56954 567 ft 4 kts 290°
2026-04-25 08:45 17.97650 102.56972 568 ft 0 kts 314°
2026-04-25 08:49 17.97658 102.56964 571 ft 3 kts 318°
2026-04-25 08:49 17.97678 102.56946 569 ft 5 kts 322°
2026-04-25 08:50 17.97719 102.56933 567 ft 7 kts
2026-04-25 08:50 17.97764 102.56957 563 ft 8 kts 37°
2026-04-25 08:50 17.97820 102.56956 566 ft 9 kts 336°
2026-04-25 08:50 17.97880 102.56914 568 ft 11 kts 316°
2026-04-25 08:51 17.97938 102.56851 563 ft 13 kts 314°
2026-04-25 08:51 17.98007 102.56779 569 ft 15 kts 315°
2026-04-25 08:51 17.98086 102.56698 570 ft 17 kts 315°
2026-04-25 08:51 17.98174 102.56607 568 ft 19 kts 315°
2026-04-25 08:52 17.98271 102.56508 567 ft 20 kts 316°
2026-04-25 08:52 17.98375 102.56401 568 ft 22 kts 315°
2026-04-25 08:52 17.98488 102.56284 568 ft 24 kts 315°
2026-04-25 08:52 17.98585 102.56185 572 ft 15 kts 317°
2026-04-25 08:53 17.98683 102.56139 566 ft 17 kts 346°
2026-04-25 08:53 17.98803 102.56107 569 ft 19 kts 345°
2026-04-25 08:53 17.98935 102.56066 565 ft 21 kts 343°
2026-04-25 08:53 17.99075 102.56027 570 ft 21 kts 344°
2026-04-25 08:54 17.99205 102.55941 562 ft 23 kts 315°
2026-04-25 08:54 17.99322 102.55821 566 ft 24 kts 315°
2026-04-25 08:54 17.99447 102.55691 564 ft 26 kts 315°
2026-04-25 08:54 17.99581 102.55551 566 ft 26 kts 315°
2026-04-25 08:55 17.99667 102.55442 561 ft 12 kts 292°
2026-04-25 08:55 17.99689 102.55363 560 ft 11 kts 292°
2026-04-25 08:55 17.99718 102.55319 566 ft 6 kts 313°
2026-04-25 08:55 17.99763 102.55316 563 ft 8 kts 30°
2026-04-25 08:56 17.99761 102.55366 569 ft 9 kts 130°
2026-04-25 08:56 17.99712 102.55418 562 ft 12 kts 135°
2026-04-25 08:56 17.99567 102.55567 565 ft 60 kts 136°
2026-04-25 08:56 17.99120 102.56028 565 ft 117 kts 135°
2026-04-25 08:57 17.98436 102.56734 565 ft 157 kts 136°
2026-04-25 08:57 17.97645 102.57507 1169 ft 143 kts 140°
2026-04-25 08:57 17.96897 102.58196 1676 ft 148 kts 139°
2026-04-25 08:57 17.96077 102.58879 2013 ft 155 kts 145°
2026-04-25 08:58 17.94997 102.59307 2141 ft 181 kts 174°
2026-04-25 08:58 17.93736 102.58932 2394 ft 203 kts 214°
2026-04-25 08:58 17.92855 102.57706 2681 ft 226 kts 250°
2026-04-25 08:58 17.92428 102.56063 2960 ft 251 kts 257°
2026-04-25 08:59 17.92228 102.54134 3326 ft 273 kts 264°
2026-04-25 08:59 17.92112 102.52127 4154 ft 278 kts 265°
2026-04-25 08:59 17.91586 102.50198 4966 ft 279 kts 235°
2026-04-25 08:59 17.90172 102.48843 5728 ft 279 kts 207°
2026-04-25 09:00 17.88371 102.48074 6527 ft 281 kts 195°
2026-04-25 09:00 17.86481 102.47530 7292 ft 284 kts 193°
2026-04-25 09:00 17.84553 102.47004 8043 ft 288 kts 194°
2026-04-25 09:00 17.82619 102.46422 8791 ft 291 kts 197°
2026-04-25 09:01 17.80674 102.45765 9530 ft 295 kts 198°
2026-04-25 09:01 17.78728 102.45044 10206 ft 300 kts 200°
2026-04-25 09:01 17.76699 102.44252 10403 ft 322 kts 201°
2026-04-25 09:01 17.74548 102.43388 10715 ft 337 kts 201°
2026-04-25 09:02 17.72338 102.42489 11274 ft 343 kts 201°
2026-04-25 09:02 17.70107 102.41577 11895 ft 346 kts 202°
2026-04-25 09:02 17.67854 102.40658 12518 ft 349 kts 202°
2026-04-25 09:02 17.65579 102.39739 13118 ft 352 kts 202°
2026-04-25 09:03 17.63280 102.38812 13711 ft 355 kts 202°
2026-04-25 09:03 17.60965 102.37881 14243 ft 358 kts 202°
2026-04-25 09:03 17.58628 102.36943 14763 ft 361 kts 203°
2026-04-25 09:03 17.56271 102.35996 15279 ft 364 kts 202°
2026-04-25 09:04 17.53900 102.35044 15801 ft 366 kts 202°
2026-04-25 09:04 17.51515 102.34087 16313 ft 369 kts 202°
2026-04-25 09:04 17.49105 102.33119 16845 ft 372 kts 202°
2026-04-25 09:04 17.46680 102.32144 17355 ft 375 kts 202°
2026-04-25 09:05 17.44238 102.31162 17864 ft 377 kts 203°
2026-04-25 09:05 17.41782 102.30171 18363 ft 380 kts 203°
2026-04-25 09:05 17.39300 102.29172 18817 ft 383 kts 203°
2026-04-25 09:05 17.36809 102.28172 19259 ft 385 kts 203°
2026-04-25 09:06 17.34299 102.27164 19722 ft 387 kts 203°
2026-04-25 09:06 17.31774 102.26150 20167 ft 390 kts 203°
2026-04-25 09:06 17.29267 102.25144 20595 ft 392 kts 203°
2026-04-25 09:06 17.26715 102.24123 21014 ft 395 kts 203°
2026-04-25 09:07 17.24142 102.23094 21427 ft 397 kts 203°
2026-04-25 09:07 17.21553 102.22059 21834 ft 400 kts 203°
2026-04-25 09:07 17.18947 102.21019 22243 ft 402 kts 203°
2026-04-25 09:07 17.16327 102.19973 22647 ft 405 kts 203°
2026-04-25 09:08 17.13691 102.18919 23052 ft 407 kts 204°
2026-04-25 09:08 17.11040 102.17858 23447 ft 409 kts 204°
2026-04-25 09:08 17.08371 102.16787 23779 ft 412 kts 204°
2026-04-25 09:08 17.05689 102.15713 24097 ft 414 kts 204°
2026-04-25 09:09 17.02989 102.14634 24405 ft 416 kts 204°
2026-04-25 09:09 17.00276 102.13550 24717 ft 419 kts 204°
2026-04-25 09:09 16.97543 102.12458 25015 ft 422 kts 204°
2026-04-25 09:09 16.94798 102.11362 25325 ft 424 kts 204°
2026-04-25 09:10 16.92034 102.10258 25638 ft 426 kts 204°
2026-04-25 09:10 16.89259 102.09152 25952 ft 428 kts 204°
2026-04-25 09:10 16.86467 102.08039 26260 ft 430 kts 204°
2026-04-25 09:10 16.83667 102.06920 26565 ft 433 kts 204°
2026-04-25 09:11 16.78012 102.04661 27147 ft 437 kts 204°
2026-04-25 09:11 16.75170 102.03527 27449 ft 439 kts 204°
2026-04-25 09:11 16.72310 102.02387 27751 ft 441 kts 204°
2026-04-25 09:12 16.69441 102.01247 28027 ft 443 kts 204°
2026-04-25 09:12 16.66559 102.00088 28294 ft 445 kts 206°
2026-04-25 09:12 16.63813 101.98616 28580 ft 443 kts 215°
2026-04-25 09:12 16.61330 101.96718 28886 ft 442 kts 224°
2026-04-25 09:13 16.59086 101.94536 29193 ft 443 kts 226°
2026-04-25 09:13 16.56843 101.92323 29527 ft 445 kts 226°
2026-04-25 09:13 16.54584 101.90104 29830 ft 447 kts 226°
2026-04-25 09:13 16.52310 101.87877 30119 ft 449 kts 226°
2026-04-25 09:14 16.50056 101.85670 30372 ft 451 kts 226°
2026-04-25 09:14 16.47766 101.83429 30651 ft 452 kts 226°
2026-04-25 09:14 16.45476 101.81188 31039 ft 450 kts 226°
2026-04-25 09:14 16.43198 101.78963 31444 ft 448 kts 226°
2026-04-25 09:15 16.40928 101.76747 31832 ft 447 kts 226°
2026-04-25 09:15 16.38663 101.74538 32236 ft 445 kts 226°
2026-04-25 09:15 16.36407 101.72336 32630 ft 444 kts 226°
2026-04-25 09:15 16.34158 101.70138 32985 ft 444 kts 226°
2026-04-25 09:16 16.31909 101.67937 33410 ft 443 kts 226°
2026-04-25 09:16 16.29671 101.65748 33805 ft 442 kts 227°
2026-04-25 09:16 16.25219 101.61404 33928 ft 436 kts 227°
2026-04-25 09:17 16.19341 101.55679 33904 ft 434 kts 226°
2026-04-25 09:18 16.14928 101.51382 33912 ft 434 kts 227°
2026-04-25 09:18 16.10532 101.47083 33910 ft 434 kts 227°
2026-04-25 09:19 16.06130 101.42789 33896 ft 433 kts 227°
2026-04-25 09:19 16.01726 101.38502 33868 ft 435 kts 227°
2026-04-25 09:20 15.97295 101.34202 33868 ft 436 kts 227°
2026-04-25 09:20 15.92861 101.29891 33869 ft 437 kts 227°
2026-04-25 09:21 15.88422 101.25573 33857 ft 438 kts 227°
2026-04-25 09:21 15.83963 101.21249 33863 ft 439 kts 227°
2026-04-25 09:22 15.79498 101.16926 33864 ft 439 kts 227°
2026-04-25 09:22 15.75030 101.12597 33868 ft 440 kts 227°
2026-04-25 09:23 15.70558 101.08258 33864 ft 440 kts 227°
2026-04-25 09:23 15.66085 101.03931 33865 ft 440 kts 227°
2026-04-25 09:24 15.61609 100.99596 33858 ft 440 kts 227°
2026-04-25 09:24 15.57161 100.95298 33506 ft 430 kts 227°
2026-04-25 09:24 15.54985 100.93203 33183 ft 424 kts 227°
2026-04-25 09:25 15.52832 100.91130 32723 ft 421 kts 226°
2026-04-25 09:25 15.50693 100.89061 32236 ft 419 kts 226°
2026-04-25 09:25 15.48570 100.87004 31790 ft 417 kts 226°
2026-04-25 09:25 15.46483 100.84986 31352 ft 415 kts 226°
2026-04-25 09:26 15.44350 100.82927 30885 ft 413 kts 226°
2026-04-25 09:26 15.42279 100.80931 30458 ft 411 kts 226°
2026-04-25 09:26 15.40162 100.78894 30016 ft 409 kts 226°
2026-04-25 09:26 15.38081 100.76892 29537 ft 407 kts 226°
2026-04-25 09:27 15.36015 100.74903 29122 ft 404 kts 225°
2026-04-25 09:27 15.33957 100.72927 28707 ft 402 kts 225°
2026-04-25 09:27 15.31918 100.70967 28322 ft 399 kts 225°
2026-04-25 09:27 15.29834 100.69082 27914 ft 398 kts 218°
2026-04-25 09:28 15.27447 100.67649 27497 ft 399 kts 205°
2026-04-25 09:28 15.24796 100.66798 27069 ft 400 kts 192°
2026-04-25 09:28 15.22063 100.66533 26651 ft 400 kts 184°
2026-04-25 09:28 15.19290 100.66391 26217 ft 399 kts 184°
2026-04-25 09:29 15.16525 100.66249 25782 ft 397 kts 184°
2026-04-25 09:29 15.13763 100.66105 25326 ft 397 kts 184°
2026-04-25 09:29 15.11007 100.65960 24875 ft 396 kts 184°
2026-04-25 09:29 15.08258 100.65815 24401 ft 396 kts 184°
2026-04-25 09:30 15.05500 100.65670 23935 ft 396 kts 184°
2026-04-25 09:30 15.02744 100.65525 23456 ft 397 kts 184°
2026-04-25 09:30 14.99987 100.65379 22914 ft 397 kts 184°
2026-04-25 09:30 14.97233 100.65236 22426 ft 395 kts 184°
2026-04-25 09:31 14.94502 100.65092 21969 ft 393 kts 184°
2026-04-25 09:31 14.91783 100.64946 21541 ft 390 kts 185°
2026-04-25 09:31 14.89098 100.64802 21221 ft 384 kts 184°
2026-04-25 09:31 14.86427 100.64659 20744 ft 384 kts 184°
2026-04-25 09:32 14.83771 100.64518 20302 ft 381 kts 184°
2026-04-25 09:32 14.81133 100.64381 19870 ft 378 kts 184°
2026-04-25 09:32 14.78512 100.64246 19435 ft 375 kts 184°
2026-04-25 09:32 14.75910 100.64111 19022 ft 373 kts 184°
2026-04-25 09:33 14.73330 100.63986 18607 ft 371 kts 181°
2026-04-25 09:33 14.70777 100.64261 18256 ft 367 kts 167°
2026-04-25 09:33 14.68364 100.64990 18131 ft 356 kts 163°
2026-04-25 09:33 14.66013 100.65719 17811 ft 351 kts 164°
2026-04-25 09:34 14.63684 100.66435 17423 ft 348 kts 165°
2026-04-25 09:34 14.61369 100.67143 17034 ft 346 kts 164°
2026-04-25 09:34 14.59071 100.67846 16665 ft 343 kts 164°
2026-04-25 09:34 14.56789 100.68546 16282 ft 341 kts 164°
2026-04-25 09:35 14.54524 100.69244 15942 ft 338 kts 164°
2026-04-25 09:35 14.52324 100.69921 15767 ft 331 kts 164°
2026-04-25 09:35 14.50111 100.70604 15337 ft 332 kts 163°
2026-04-25 09:35 14.47900 100.71286 14983 ft 331 kts 164°
2026-04-25 09:36 14.45671 100.71839 14625 ft 328 kts 174°
2026-04-25 09:36 14.43403 100.71843 14327 ft 324 kts 188°
2026-04-25 09:36 14.41212 100.71350 14025 ft 321 kts 195°
2026-04-25 09:36 14.39075 100.70781 13874 ft 312 kts 194°
2026-04-25 09:37 14.37025 100.70237 13755 ft 298 kts 194°
2026-04-25 09:37 14.35044 100.69714 13484 ft 290 kts 194°
2026-04-25 09:37 14.33101 100.69203 13102 ft 287 kts 194°
2026-04-25 09:37 14.31171 100.68697 12694 ft 285 kts 194°
2026-04-25 09:38 14.29256 100.68196 12348 ft 283 kts 194°
2026-04-25 09:38 14.27351 100.67697 12092 ft 283 kts 194°
2026-04-25 09:38 14.25441 100.67197 11838 ft 282 kts 194°
2026-04-25 09:38 14.23540 100.66695 11592 ft 281 kts 193°
2026-04-25 09:39 14.21650 100.66196 11340 ft 280 kts 193°
2026-04-25 09:39 14.19770 100.65698 11094 ft 278 kts 194°
2026-04-25 09:39 14.17902 100.65206 10937 ft 277 kts 193°
2026-04-25 09:40 14.14172 100.64227 10495 ft 276 kts 193°
2026-04-25 09:40 14.12320 100.63741 10259 ft 275 kts 193°
2026-04-25 09:40 14.10447 100.63335 9805 ft 280 kts 181°
2026-04-25 09:40 14.08532 100.63661 9501 ft 277 kts 156°
2026-04-25 09:41 14.06955 100.64716 9357 ft 268 kts 133°
2026-04-25 09:41 14.05948 100.66291 9144 ft 263 kts 110°
2026-04-25 09:41 14.05530 100.68113 8876 ft 261 kts 101°
2026-04-25 09:41 14.05200 100.69944 8587 ft 260 kts 101°
2026-04-25 09:42 14.04871 100.71775 8302 ft 259 kts 101°
2026-04-25 09:42 14.04541 100.73601 8014 ft 259 kts 102°
2026-04-25 09:42 14.04158 100.75462 7360 ft 273 kts 105°
2026-04-25 09:42 14.03679 100.77398 6810 ft 282 kts 107°
2026-04-25 09:43 14.03168 100.79315 6672 ft 273 kts 109°
2026-04-25 09:43 14.02214 100.80917 6550 ft 260 kts 141°
2026-04-25 09:43 14.00619 100.81697 6189 ft 260 kts 172°
2026-04-25 09:43 13.98779 100.81508 5594 ft 273 kts 192°
2026-04-25 09:44 13.96905 100.81029 5006 ft 284 kts 193°
2026-04-25 09:44 13.94931 100.80484 4377 ft 304 kts 194°
2026-04-25 09:44 13.92830 100.79898 3784 ft 319 kts 195°
2026-04-25 09:44 13.90750 100.79325 3710 ft 309 kts 194°
2026-04-25 09:45 13.88701 100.78772 3617 ft 301 kts 194°
2026-04-25 09:45 13.86696 100.78238 3403 ft 296 kts 194°
2026-04-25 09:45 13.84691 100.77706 2979 ft 300 kts 194°
2026-04-25 09:45 13.82670 100.77172 2567 ft 300 kts 194°
2026-04-25 09:46 13.80677 100.76649 2402 ft 283 kts 194°
2026-04-25 09:46 13.78870 100.76174 2391 ft 253 kts 194°
2026-04-25 09:46 13.77233 100.75745 1973 ft 238 kts 194°
2026-04-25 09:46 13.75671 100.75336 1438 ft 222 kts 195°
2026-04-25 09:47 13.74240 100.74962 958 ft 203 kts 194°
2026-04-25 09:47 13.72955 100.74627 648 ft 177 kts 197°
2026-04-25 09:47 13.71843 100.74339 410 ft 159 kts 195°
2026-04-25 09:47 13.70822 100.74062 236 ft 147 kts 198°
2026-04-25 09:48 13.69876 100.73805 66 ft 139 kts 195°
2026-04-25 09:48 13.68991 100.73582 14 ft 116 kts 199°
2026-04-25 09:48 13.68334 100.73402 12 ft 79 kts 194°
2026-04-25 09:48 13.68004 100.73321 15 ft 34 kts 190°
2026-04-25 09:49 13.67781 100.73258 16 ft 32 kts 195°
2026-04-25 09:49 13.67590 100.73237 17 ft 26 kts 163°
2026-04-25 09:49 13.67463 100.73275 14 ft 13 kts 165°
2026-04-25 09:49 13.67440 100.73351 15 ft 15 kts 47°
2026-04-25 09:50 13.67542 100.73386 14 ft 16 kts 14°
2026-04-25 09:50 13.67658 100.73417 15 ft 18 kts 14°
2026-04-25 09:50 13.67787 100.73451 14 ft 20 kts 14°
2026-04-25 09:50 13.67932 100.73488 14 ft 23 kts 14°
2026-04-25 09:51 13.68089 100.73529 16 ft 24 kts 14°
2026-04-25 09:51 13.68255 100.73573 13 ft 25 kts 14°
2026-04-25 09:51 13.68410 100.73614 13 ft 24 kts 13°
2026-04-25 09:51 13.68574 100.73658 13 ft 21 kts 14°
2026-04-25 09:52 13.68704 100.73692 13 ft 17 kts 14°
2026-04-25 09:52 13.68787 100.73731 15 ft 12 kts 59°
2026-04-25 09:52 13.68781 100.73798 14 ft 8 kts 105°
2026-04-25 09:52 13.68764 100.73862 14 ft 10 kts 104°
2026-04-25 09:53 13.68745 100.73937 15 ft 12 kts 104°
2026-04-25 09:53 13.68723 100.74027 14 ft 14 kts 104°
2026-04-25 09:53 13.68695 100.74137 14 ft 17 kts 104°
2026-04-25 09:53 13.68666 100.74254 13 ft 18 kts 103°
2026-04-25 09:54 13.68635 100.74379 13 ft 16 kts 103°
2026-04-25 09:54 13.68606 100.74500 13 ft 19 kts 104°
2026-04-25 09:54 13.68578 100.74603 13 ft 10 kts 104°
2026-04-25 09:54 13.68590 100.74670 13 ft 11 kts 31°
2026-04-25 09:55 13.68663 100.74690 13 ft 10 kts 15°
2026-04-25 09:55 13.68715 100.74705 13 ft 6 kts 15°
2026-04-25 09:55 13.68750 100.74714 15 ft 5 kts 13°
2026-04-25 09:55 13.68787 100.74723 13 ft 3 kts 14°
2026-04-25 09:56 13.68805 100.74713 14 ft 4 kts 305°
2026-04-25 09:56 13.68814 100.74679 13 ft 6 kts 283°
2026-04-25 09:56 13.68820 100.74656 14 ft 2 kts 284°
2026-04-25 09:56 13.68822 100.74647 14 ft 1 kts 283°
2026-04-25 09:57 13.68822 100.74645 14 ft 0 kts 283°